Wind_Speed
3 1 1 8 15 17 16 15 12 12 19 27 27 24 22 26 29 31 35 37 38 42 43 44 45 44 44 44 45 43 40 40 39 38 37 35 33 31 29 27 25 25 24 22
1 4 8 11 11 10 9 11 14 16 21 25 28 28 25 26 30 36 38 39 41 43 42 43 43 43 43 42 39 37 35 35 37 37 36 35 33 31 27 26 25 24 23 22
6 5 8 7 5 5 6 10 13 18 21 22 21 20 18 20 26 32 34 34 36 39 41 42 41 39 38 37 37 35 35 36 37 37 36 34 33 31 30 27 25 23 23 22
4 7 10 5 7 8 9 13 17 19 20 20 17 18 19 22 26 30 32 32 34 34 37 38 41 41 38 37 36 35 37 36 36 37 35 35 33 30 29 27 25 24 24 24
5 8 10 7 9 11 12 15 16 15 14 14 13 17 20 24 27 30 30 30 33 34 36 37 37 37 39 38 37 34 34 35 36 36 36 37 34 30 28 26 26 26 26 26
1 6 7 7 8 10 11 9 6 9 15 20 21 21 22 24 25 29 30 31 33 34 34 34 35 36 37 36 37 36 36 36 37 37 37 37 35 32 30 28 28 29 30 30
4 6 6 7 9 11 12 10 11 16 22 26 19 13 17 20 22 27 30 31 32 33 34 35 35 36 38 39 39 40 40 39 40 40 40 40 38 36 35 34 33 33 34 34
11 9 7 10 12 11 10 9 11 16 18 22 24 21 21 24 27 29 29 30 32 34 35 37 38 39 40 41 42 43 44 44 44 45 45 45 44 42 41 40 39 39 39 39
8 8 8 12 13 11 10 9 10 15 14 14 17 26 29 30 30 28 28 32 35 37 39 40 42 43 44 46 47 48 49 50 50 51 51 50 50 50 49 48 47 46 46 44
7 7 6 8 10 12 14 15 14 15 16 17 15 26 34 34 32 31 33 37 39 40 42 44 46 47 48 50 52 53 54 55 55 56 56 57 56 56 56 56 55 54 52 50
7 7 6 8 11 10 13 15 18 19 19 21 21 28 32 35 35 38 40 41 43 45 47 49 50 52 53 54 55 56 57 58 59 60 61 61 61 61 60 60 60 59 58 57
9 9 8 9 13 11 11 16 20 21 22 23 25 31 34 36 38 40 42 45 48 50 51 53 55 56 56 57 58 60 61 62 63 63 64 65 65 65 65 65 64 63 62 61
11 10 10 11 16 17 17 20 21 23 26 28 29 35 37 38 41 43 45 49 51 54 55 57 59 60 61 62 63 64 65 66 67 67 68 68 69 69 69 69 68 68 67 65
11 11 11 10 12 15 17 19 22 25 28 30 32 38 41 42 44 47 50 53 56 58 61 63 64 66 67 69 70 71 72 73 73 73 73 74 74 74 74 74 74 73 72 70
11 11 12 13 13 15 18 20 23 26 29 32 36 40 45 47 49 52 55 58 61 64 66 67 69 71 73 75 76 76 75 74 73 72 71 71 71 72 73 74 76 76 76 75
13 13 14 15 16 17 20 22 26 31 34 38 40 43 48 51 54 57 59 62 65 68 70 72 75 76 77 75 72 68 64 60 57 55 54 53 53 54 56 59 63 67 70 73
15 17 19 20 19 21 23 26 30 35 39 43 46 48 51 54 57 59 62 65 69 71 74 76 76 73 68 61 54 50 47 45 44 42 40 39 39 39 40 40 42 45 50 56
17 19 22 23 23 23 27 29 34 38 41 46 48 50 53 57 60 62 65 69 71 73 74 70 64 56 49 44 41 41 40 39 38 37 36 36 36 36 35 36 36 37 37 39
22 23 24 25 25 29 33 34 38 42 45 48 51 54 58 61 63 64 68 71 72 69 63 55 47 41 39 38 38 38 38 38 37 36 36 36 36 35 35 34 34 33 33 32
26 27 27 28 30 33 36 39 43 45 48 53 55 58 61 63 66 68 69 70 65 57 49 43 40 39 40 40 41 42 41 41 41 40 40 39 38 37 36 35 33 33 32 30
23 25 27 29 32 37 39 43 45 47 50 52 55 58 62 66 69 70 67 61 52 45 41 41 42 43 44 45 46 45 45 45 45 45 44 43 42 40 38 35 34 33 33 31
23 26 29 32 35 39 42 44 47 50 53 56 60 63 66 69 69 65 59 51 45 42 42 44 46 47 48 49 49 49 48 48 48 48 47 46 45 43 40 37 35 33 32 31
25 27 31 34 37 41 44 47 50 53 56 60 63 66 69 70 65 58 51 45 43 44 46 48 50 51 51 51 52 51 51 51 50 49 48 46 44 42 40 37 35 34 32 30
31 31 33 36 39 43 47 50 52 55 58 62 65 68 69 65 58 52 47 45 45 47 49 51 53 53 53 52 52 52 52 51 50 48 45 43 41 39 38 36 34 32 31 30
29 33 36 39 43 44 46 50 53 56 59 63 66 69 66 60 55 50 47 46 48 51 52 54 54 54 54 52 51 51 49 47 45 42 39 36 34 33 33 32 30 29 29 28
32 35 38 41 43 46 48 51 55 58 61 64 67 68 62 57 53 49 48 49 51 53 54 54 54 54 53 51 49 46 43 40 38 36 33 31 29 27 27 27 26 27 27 27
Wind_Direction
293 294 343 239 237 238 231 219 214 225 235 248 254 257 249 252 261 263 267 270 272 275 275 273 274 272 275 277 277 277 277 281 284 286 286 290 291 292 287 282 281 277 272 269
327 215 243 268 270 258 254 252 239 242 248 256 263 266 262 256 262 266 269 273 275 276 275 274 274 272 271 273 277 275 275 279 282 286 287 290 291 291 286 283 279 272 267 264
306 283 290 306 301 281 264 254 247 243 247 256 273 285 282 266 262 267 272 275 278 276 278 278 279 279 272 275 280 282 278 282 285 288 289 291 291 289 286 283 274 267 264 264
262 292 308 298 277 265 266 258 255 259 262 265 266 273 271 266 259 262 271 280 281 282 281 277 279 281 281 282 283 284 284 286 289 291 291 289 289 290 287 281 274 266 262 264
290 303 311 301 284 281 276 273 273 275 277 272 263 262 262 262 263 267 273 281 288 287 286 284 281 284 285 287 288 287 290 293 292 292 292 292 292 290 286 281 275 271 268 267
15 330 326 320 304 303 307 303 290 287 281 267 253 240 247 261 273 279 285 289 290 290 289 287 286 286 287 287 289 290 290 291 291 292 292 293 292 290 287 283 276 274 273 271
342 268 279 320 324 305 300 301 301 304 309 312 310 257 249 266 281 286 290 291 292 293 292 291 290 288 288 287 289 289 288 289 290 290 290 290 290 288 286 283 281 278 276 274
322 342 351 329 321 316 314 309 309 307 308 317 320 312 286 278 278 282 287 293 296 296 296 294 293 292 290 289 289 288 288 288 287 287 287 286 286 285 282 280 279 278 277 276
313 326 316 313 322 336 339 325 304 300 305 305 305 297 287 284 278 275 283 294 298 298 297 296 294 292 291 290 288 287 286 286 285 284 284 283 282 281 280 278 277 276 275 275
308 302 292 302 311 318 325 329 324 317 310 302 297 292 294 300 297 296 298 299 300 299 297 295 293 292 290 288 287 286 285 284 283 282 282 281 280 278 277 276 276 275 273 272
305 310 315 304 290 291 304 315 314 311 307 301 298 292 292 297 296 298 299 299 299 298 296 294 293 292 291 289 287 286 284 283 281 280 279 278 277 276 275 275 274 273 272 271
316 321 320 303 295 288 301 315 317 316 313 309 304 295 295 296 296 297 298 298 297 296 295 294 293 292 291 289 287 286 284 282 281 280 278 277 275 274 274 273 272 271 271 270
318 320 316 314 318 328 328 322 315 307 304 304 302 296 297 298 299 299 298 298 297 297 297 296 295 294 292 291 289 287 285 283 281 279 277 276 275 273 272 271 271 270 269 269
316 316 315 315 312 310 308 307 304 302 300 301 302 300 302 304 304 302 302 301 301 300 299 298 297 296 294 292 290 288 286 284 282 279 277 275 274 272 271 270 269 269 268 268
323 323 323 322 315 307 303 302 304 305 306 306 306 305 306 307 306 305 305 304 303 302 302 301 299 297 296 294 292 290 288 287 285 282 280 278 275 273 271 269 268 267 266 266
330 331 328 325 321 316 309 307 311 311 309 309 309 309 309 309 308 308 308 308 306 305 304 303 301 299 298 296 295 294 292 290 289 287 284 281 278 276 274 272 270 268 266 265
334 333 331 329 326 319 312 316 313 311 312 312 313 314 312 311 311 312 311 309 308 307 306 304 303 302 301 300 298 297 296 295 294 292 289 286 284 282 280 279 278 275 271 267
335 332 330 331 331 320 320 320 316 315 315 314 316 316 316 315 315 315 314 311 311 309 307 306 305 305 304 303 302 301 300 298 297 295 292 289 287 285 283 281 281 281 279 275
337 337 335 335 332 322 324 324 320 320 320 320 321 321 320 319 318 318 316 314 312 311 310 310 310 310 309 307 305 303 301 299 297 295 292 291 288 286 284 282 281 280 281 281
334 333 334 334 332 326 330 326 326 326 326 326 325 324 322 320 320 320 318 316 315 315 315 315 314 312 310 308 305 303 300 298 295 293 291 289 287 286 284 281 277 277 279 280
327 329 332 334 333 329 332 328 328 327 326 325 324 323 323 324 324 323 321 320 319 318 316 315 314 312 310 308 305 302 299 296 293 291 289 287 285 284 282 279 275 273 273 274
331 332 333 335 334 331 331 328 329 328 328 328 328 328 328 327 326 325 324 323 321 319 317 315 313 312 310 307 305 302 298 295 292 289 287 284 282 280 278 275 272 269 268 267
333 334 333 334 332 331 330 331 331 331 331 331 331 331 330 329 329 328 327 325 322 320 318 316 314 312 310 307 305 302 298 294 292 289 286 283 280 277 274 270 267 265 261 260
328 333 331 331 332 333 332 332 332 332 332 332 332 333 332 331 331 330 329 326 324 322 320 318 315 314 311 308 305 302 299 295 293 290 287 283 278 273 269 265 262 259 254 252
326 328 331 332 332 332 331 330 331 332 333 333 334 335 334 334 333 332 331 328 326 324 322 320 318 316 313 310 308 305 301 298 296 293 288 282 276 271 265 260 255 251 247 242
329 330 331 331 330 330 331 332 332 334 335 336 337 338 337 336 335 334 332 330 328 327 325 324 323 321 319 316 314 311 307 303 299 295 289 281 273 267 261 254 247 242 238 234
Height
5869 5871 5872 5872 5871 5872 5873 5876 5878 5882 5878 5874 5874 5876 5877 5876 5873 5872 5871 5870 5868 5865 5862 5856 5851 5846 5844 5840 5839 5835 5832 5834 5835 5835 5834 5835 5835 5833 5833 5832 5832 5832 5832 5831
5869 5869 5869 5868 5868 5869 5871 5873 5874 5875 5872 5870 5869 5870 5871 5871 5869 5866 5865 5863 5860 5855 5849 5842 5841 5837 5833 5832 5829 5821 5822 5825 5828 5827 5825 5827 5827 5827 5826 5825 5826 5826 5826 5825
5868 5867 5866 5867 5868 5868 5869 5869 5868 5867 5865 5865 5865 5865 5865 5864 5862 5858 5856 5854 5852 5849 5846 5839 5832 5825 5821 5823 5819 5815 5818 5819 5820 5820 5819 5820 5819 5819 5819 5819 5818 5819 5819 5819
5867 5867 5866 5865 5865 5865 5865 5863 5862 5862 5861 5861 5863 5862 5859 5856 5853 5851 5849 5846 5843 5842 5839 5833 5829 5821 5819 5816 5814 5816 5814 5815 5815 5814 5814 5814 5813 5813 5812 5811 5812 5812 5812 5813
5866 5865 5864 5864 5863 5862 5861 5859 5858 5857 5856 5856 5858 5858 5855 5850 5848 5845 5843 5841 5838 5836 5833 5829 5825 5820 5818 5815 5812 5810 5809 5810 5809 5809 5808 5807 5806 5805 5805 5805 5805 5805 5805 5806
5864 5864 5863 5862 5861 5860 5858 5856 5855 5854 5852 5850 5848 5847 5847 5845 5844 5841 5839 5837 5835 5832 5828 5825 5821 5818 5815 5812 5809 5807 5804 5804 5803 5802 5801 5800 5799 5798 5797 5798 5798 5798 5798 5798
5861 5860 5860 5860 5860 5858 5856 5855 5854 5852 5848 5842 5839 5839 5841 5840 5839 5836 5834 5832 5830 5826 5823 5820 5817 5814 5810 5808 5805 5802 5799 5797 5795 5794 5793 5792 5791 5790 5789 5789 5790 5790 5790 5789
5858 5858 5859 5860 5859 5857 5855 5854 5854 5851 5848 5846 5839 5839 5838 5836 5834 5831 5829 5827 5824 5821 5817 5814 5811 5807 5803 5800 5797 5794 5791 5789 5787 5785 5783 5782 5781 5780 5780 5780 5780 5780 5780 5780
5861 5861 5861 5859 5858 5856 5854 5853 5852 5849 5847 5846 5845 5838 5832 5828 5824 5821 5821 5821 5818 5814 5810 5806 5802 5799 5795 5791 5787 5784 5781 5778 5776 5774 5772 5771 5770 5768 5768 5768 5767 5768 5768 5769
5861 5860 5860 5859 5858 5856 5854 5852 5850 5847 5844 5842 5842 5835 5828 5823 5818 5816 5815 5813 5810 5806 5801 5797 5792 5788 5784 5780 5776 5772 5769 5766 5763 5760 5758 5756 5755 5755 5754 5753 5753 5753 5754 5755
5860 5859 5858 5857 5854 5853 5852 5851 5848 5845 5843 5839 5836 5833 5826 5822 5817 5812 5808 5805 5802 5797 5792 5787 5781 5776 5772 5767 5763 5759 5755 5752 5748 5745 5743 5741 5739 5738 5737 5736 5736 5737 5738 5739
5859 5858 5856 5855 5851 5848 5848 5847 5845 5842 5839 5836 5832 5829 5821 5816 5811 5807 5802 5796 5791 5786 5781 5775 5769 5764 5758 5753 5748 5744 5739 5735 5732 5728 5726 5723 5721 5720 5719 5718 5718 5718 5719 5721
5857 5856 5855 5853 5851 5847 5845 5844 5842 5839 5836 5832 5827 5823 5815 5811 5805 5799 5793 5787 5781 5774 5768 5761 5755 5749 5743 5737 5731 5726 5721 5717 5713 5709 5706 5703 5701 5700 5699 5698 5699 5699 5700 5702
5855 5854 5853 5851 5849 5847 5845 5843 5839 5835 5831 5826 5822 5814 5807 5803 5797 5790 5783 5776 5769 5761 5753 5746 5739 5732 5724 5717 5711 5705 5699 5694 5689 5686 5683 5681 5678 5677 5676 5676 5677 5678 5679 5682
5854 5852 5850 5848 5845 5844 5842 5839 5835 5830 5825 5820 5815 5808 5800 5794 5787 5779 5772 5763 5754 5745 5737 5729 5720 5711 5702 5694 5686 5679 5673 5667 5662 5659 5656 5654 5652 5651 5651 5652 5653 5654 5656 5659
5852 5850 5848 5845 5842 5840 5837 5833 5829 5824 5818 5813 5807 5801 5792 5784 5776 5767 5759 5749 5738 5728 5719 5708 5698 5688 5678 5669 5661 5654 5647 5642 5638 5635 5632 5630 5629 5628 5627 5627 5628 5630 5631 5634
5849 5847 5844 5841 5838 5835 5831 5829 5823 5817 5811 5804 5797 5792 5782 5773 5764 5755 5745 5733 5721 5710 5699 5686 5675 5664 5655 5646 5639 5634 5629 5625 5622 5619 5616 5614 5613 5611 5610 5610 5609 5609 5609 5610
5848 5844 5841 5837 5834 5830 5829 5822 5817 5810 5804 5796 5789 5780 5771 5762 5752 5742 5729 5715 5703 5690 5677 5665 5654 5645 5638 5632 5626 5621 5617 5613 5609 5606 5604 5601 5600 5599 5597 5596 5596 5595 5594 5593
5844 5840 5837 5834 5830 5825 5820 5815 5808 5802 5794 5786 5778 5768 5758 5747 5737 5728 5713 5698 5684 5670 5658 5648 5640 5633 5627 5622 5616 5611 5607 5602 5599 5596 5593 5590 5588 5587 5586 5585 5584 5583 5582 5581
5840 5837 5834 5829 5825 5820 5816 5807 5800 5794 5786 5775 5765 5756 5745 5734 5722 5712 5696 5680 5666 5653 5644 5636 5630 5624 5618 5612 5606 5600 5595 5591 5587 5584 5581 5578 5576 5575 5574 5573 5573 5572 5572 5571
5840 5835 5831 5826 5821 5814 5809 5800 5794 5787 5780 5770 5759 5748 5734 5721 5707 5692 5677 5664 5652 5642 5634 5627 5620 5614 5607 5600 5594 5588 5582 5578 5573 5569 5566 5564 5562 5561 5560 5560 5560 5560 5561 5561
5836 5832 5827 5822 5816 5810 5802 5794 5787 5779 5768 5757 5746 5734 5720 5706 5691 5676 5662 5650 5641 5633 5626 5618 5610 5603 5596 5588 5581 5574 5568 5563 5557 5553 5550 5548 5547 5546 5546 5547 5548 5548 5549 5550
5832 5828 5822 5818 5813 5804 5795 5787 5778 5768 5758 5746 5734 5722 5707 5692 5678 5664 5652 5642 5633 5624 5616 5607 5598 5590 5582 5573 5565 5557 5551 5545 5540 5536 5533 5531 5530 5529 5530 5532 5534 5536 5538 5540
5826 5823 5818 5812 5805 5798 5788 5779 5771 5761 5750 5738 5724 5710 5695 5679 5666 5654 5643 5633 5624 5615 5605 5595 5585 5576 5567 5558 5549 5540 5533 5527 5522 5518 5515 5513 5512 5513 5514 5517 5520 5523 5526 5530
5824 5818 5813 5805 5798 5792 5784 5774 5764 5754 5742 5729 5715 5699 5683 5668 5656 5644 5634 5625 5615 5605 5594 5583 5572 5561 5551 5541 5532 5523 5515 5508 5504 5500 5498 5496 5496 5497 5499 5503 5506 5511 5515 5519
5818 5812 5806 5800 5793 5785 5776 5767 5756 5745 5733 5720 5705 5690 5674 5659 5647 5636 5626 5616 5605 5594 5583 5571 5559 5547 5536 5525 5516 5507 5499 5492 5488 5485 5483 5482 5483 5485 5487 5491 5495 5500 5505 5511